^^
Station Historical Data
Daily Summary for April 14, 2019 Units:  English    Metric   Both
« Previous Day
Next Day »
Daily Weekly Monthly Yearly Custom
  High: Low: Average:
Temperature: 49.4 °F 25.4 °F 36.8 °F
Dew Point: 29.5 °F 22.2 °F 26.2 °F
Humidity: 90% 45% 68%
Wind Speed: 30.0mph 5.0mph 14.7mph
Wind Gust: 37.0mph - -
Wind- - SE
Pressure: 29.92 in 29.58 in -
Precipitation: 0.00 in    
Historical Graphs
 
 
Tabular Data for April 14, 2019
Time Temperature Dew Point Pressure Wind Wind Speed Wind Gust Humidity Rainfall Rate (Hourly) solar Conditions
00:04 31.1 °F 24.4 °F 29.92 in SSE 7.0 mph 11.0 mph 76% 0.00 in 0.00 W/m2
00:09 30.8 °F 22.8 °F 29.91 in SSE 8.0 mph 10.0 mph 72% 0.00 in 0.00 W/m2
00:14 30.5 °F 22.5 °F 29.91 in SE 7.0 mph 9.0 mph 72% 0.00 in 0.00 W/m2
00:19 30.1 °F 22.2 °F 29.91 in SE 7.0 mph 9.0 mph 72% 0.00 in 0.00 W/m2
00:24 29.9 °F 22.3 °F 29.91 in SE 7.0 mph 9.0 mph 73% 0.00 in 0.00 W/m2
00:29 29.5 °F 22.2 °F 29.91 in SE 9.0 mph 10.0 mph 74% 0.00 in 0.00 W/m2
00:34 29.5 °F 22.6 °F 29.91 in SE 10.0 mph 11.0 mph 75% 0.00 in 0.00 W/m2
00:39 29.9 °F 22.6 °F 29.91 in SSE 8.0 mph 12.0 mph 74% 0.00 in 0.00 W/m2
00:44 30.0 °F 22.7 °F 29.91 in SE 9.0 mph 12.0 mph 74% 0.00 in 0.00 W/m2
00:49 29.9 °F 22.6 °F 29.91 in SSE 8.0 mph 12.0 mph 74% 0.00 in 0.00 W/m2
00:54 29.8 °F 22.5 °F 29.90 in SSE 6.0 mph 12.0 mph 74% 0.00 in 0.00 W/m2
00:59 29.6 °F 22.6 °F 29.90 in SSE 9.0 mph 11.0 mph 75% 0.00 in 0.00 W/m2
01:04 29.7 °F 22.7 °F 29.90 in SE 9.0 mph 11.0 mph 75% 0.00 in 0.00 W/m2
01:09 29.6 °F 22.6 °F 29.90 in ESE 9.0 mph 11.0 mph 75% 0.00 in 0.00 W/m2
01:14 29.4 °F 22.8 °F 29.90 in SE 7.0 mph 11.0 mph 76% 0.00 in 0.00 W/m2
01:19 29.1 °F 22.8 °F 29.90 in SE 10.0 mph 11.0 mph 77% 0.00 in 0.00 W/m2
01:24 29.2 °F 23.2 °F 29.90 in ESE 9.0 mph 13.0 mph 78% 0.00 in 0.00 W/m2
01:29 29.1 °F 23.1 °F 29.90 in SE 9.0 mph 13.0 mph 78% 0.00 in 0.00 W/m2
01:34 28.9 °F 22.9 °F 29.89 in ESE 11.0 mph 11.0 mph 78% 0.00 in 0.00 W/m2
01:39 28.8 °F 23.1 °F 29.89 in SE 10.0 mph 12.0 mph 79% 0.00 in 0.00 W/m2
01:44 28.8 °F 23.1 °F 29.89 in SE 9.0 mph 12.0 mph 79% 0.00 in 0.00 W/m2
01:49 28.6 °F 22.9 °F 29.89 in SSE 9.0 mph 12.0 mph 79% 0.00 in 0.00 W/m2
01:54 28.5 °F 23.1 °F 29.89 in SE 9.0 mph 11.0 mph 80% 0.00 in 0.00 W/m2
01:59 28.3 °F 22.9 °F 29.89 in SE 7.0 mph 11.0 mph 80% 0.00 in 0.00 W/m2
02:04 28.1 °F 23.0 °F 29.89 in SE 8.0 mph 11.0 mph 81% 0.00 in 0.00 W/m2
02:09 27.9 °F 22.8 °F 29.89 in SE 6.0 mph 11.0 mph 81% 0.00 in 0.00 W/m2
02:14 27.6 °F 22.8 °F 29.88 in SE 7.0 mph 11.0 mph 82% 0.00 in 0.00 W/m2
02:19 27.5 °F 23.0 °F 29.88 in SE 7.0 mph 11.0 mph 83% 0.00 in 0.00 W/m2
02:24 27.5 °F 23.0 °F 29.88 in ESE 8.0 mph 12.0 mph 83% 0.00 in 0.00 W/m2
02:29 27.4 °F 22.9 °F 29.88 in ESE 5.0 mph 12.0 mph 83% 0.00 in 0.00 W/m2
02:34 27.3 °F 23.1 °F 29.88 in SE 9.0 mph 11.0 mph 84% 0.00 in 0.00 W/m2
02:39 27.3 °F 23.1 °F 29.87 in ESE 9.0 mph 11.0 mph 84% 0.00 in 0.00 W/m2
02:44 27.3 °F 23.4 °F 29.87 in SE 9.0 mph 12.0 mph 85% 0.00 in 0.00 W/m2
02:49 27.3 °F 23.4 °F 29.87 in ESE 8.0 mph 12.0 mph 85% 0.00 in 0.00 W/m2
02:54 27.3 °F 23.4 °F 29.86 in ESE 9.0 mph 12.0 mph 85% 0.00 in 0.00 W/m2
02:59 27.2 °F 23.3 °F 29.86 in SE 9.0 mph 12.0 mph 85% 0.00 in 0.00 W/m2
03:04 27.2 °F 23.3 °F 29.86 in ESE 9.0 mph 12.0 mph 85% 0.00 in 0.00 W/m2
03:09 27.1 °F 23.2 °F 29.86 in ESE 8.0 mph 12.0 mph 85% 0.00 in 0.00 W/m2
03:14 27.1 °F 23.2 °F 29.85 in ESE 5.0 mph 12.0 mph 85% 0.00 in 0.00 W/m2
03:19 27.0 °F 23.1 °F 29.85 in SE 7.0 mph 12.0 mph 85% 0.00 in 0.00 W/m2
03:24 27.1 °F 23.5 °F 29.85 in SE 10.0 mph 11.0 mph 86% 0.00 in 0.00 W/m2
03:29 27.2 °F 23.6 °F 29.85 in SE 11.0 mph 11.0 mph 86% 0.00 in 0.00 W/m2
03:34 27.2 °F 23.6 °F 29.84 in SE 7.0 mph 12.0 mph 86% 0.00 in 0.00 W/m2
03:39 27.3 °F 23.7 °F 29.84 in ESE 8.0 mph 12.0 mph 86% 0.00 in 0.00 W/m2
03:44 27.3 °F 23.7 °F 29.84 in East 11.0 mph 14.0 mph 86% 0.00 in 0.00 W/m2
03:49 27.4 °F 24.0 °F 29.83 in ESE 9.0 mph 14.0 mph 87% 0.00 in 0.00 W/m2
03:54 27.5 °F 24.1 °F 29.83 in ESE 9.0 mph 13.0 mph 87% 0.00 in 0.00 W/m2
03:59 27.3 °F 23.9 °F 29.82 in ESE 9.0 mph 13.0 mph 87% 0.00 in 0.00 W/m2
04:04 27.2 °F 23.8 °F 29.82 in ESE 9.0 mph 13.0 mph 87% 0.00 in 0.00 W/m2
04:09 27.2 °F 23.8 °F 29.82 in ESE 9.0 mph 13.0 mph 87% 0.00 in 0.00 W/m2
04:14 27.1 °F 24.0 °F 29.82 in ESE 11.0 mph 11.0 mph 88% 0.00 in 0.00 W/m2
04:19 27.0 °F 23.9 °F 29.82 in ESE 9.0 mph 11.0 mph 88% 0.00 in 0.00 W/m2
04:24 27.0 °F 23.9 °F 29.82 in ESE 9.0 mph 11.0 mph 88% 0.00 in 0.00 W/m2
04:29 26.9 °F 23.8 °F 29.82 in ESE 8.0 mph 11.0 mph 88% 0.00 in 0.00 W/m2
04:34 26.7 °F 23.6 °F 29.82 in ESE 9.0 mph 11.0 mph 88% 0.00 in 0.00 W/m2
04:39 26.6 °F 23.5 °F 29.81 in ESE 10.0 mph 11.0 mph 88% 0.00 in 0.00 W/m2
04:44 26.5 °F 23.7 °F 29.81 in ESE 9.0 mph 12.0 mph 89% 0.00 in 0.00 W/m2
04:49 26.4 °F 23.6 °F 29.81 in East 9.0 mph 12.0 mph 89% 0.00 in 0.00 W/m2
04:54 26.3 °F 23.5 °F 29.81 in East 10.0 mph 14.0 mph 89% 0.00 in 0.00 W/m2
04:59 25.9 °F 22.8 °F 29.81 in East 10.0 mph 14.0 mph 88% 0.00 in 0.00 W/m2
05:04 25.7 °F 22.9 °F 29.81 in East 10.0 mph 12.0 mph 89% 0.00 in 0.00 W/m2
05:09 25.6 °F 22.8 °F 29.80 in East 8.0 mph 13.0 mph 89% 0.00 in 0.00 W/m2
05:14 25.5 °F 22.7 °F 29.80 in East 11.0 mph 13.0 mph 89% 0.00 in 0.00 W/m2
05:19 25.4 °F 22.6 °F 29.80 in ESE 12.0 mph 14.0 mph 89% 0.00 in 0.00 W/m2
05:24 25.4 °F 22.9 °F 29.80 in ESE 11.0 mph 15.0 mph 90% 0.00 in 0.00 W/m2
05:29 25.5 °F 23.0 °F 29.80 in ESE 9.0 mph 15.0 mph 90% 0.00 in 0.00 W/m2
05:34 25.4 °F 22.6 °F 29.80 in ESE 13.0 mph 14.0 mph 89% 0.00 in 0.00 W/m2
05:39 25.4 °F 22.6 °F 29.79 in ESE 12.0 mph 14.0 mph 89% 0.00 in 0.00 W/m2
05:44 25.4 °F 22.6 °F 29.79 in ESE 11.0 mph 14.0 mph 89% 0.00 in 0.00 W/m2
05:49 25.4 °F 22.9 °F 29.79 in ESE 10.0 mph 14.0 mph 90% 0.00 in 0.00 W/m2
05:54 25.5 °F 23.0 °F 29.79 in East 9.0 mph 14.0 mph 90% 0.00 in 0.00 W/m2
05:59 25.4 °F 22.9 °F 29.79 in East 9.0 mph 13.0 mph 90% 0.00 in 0.00 W/m2
06:04 25.5 °F 23.0 °F 29.79 in ESE 11.0 mph 14.0 mph 90% 0.00 in 0.00 W/m2
06:09 25.6 °F 23.1 °F 29.78 in ESE 11.0 mph 14.0 mph 90% 0.00 in 0.00 W/m2
06:14 25.6 °F 23.1 °F 29.78 in East 11.0 mph 14.0 mph 90% 0.00 in 0.00 W/m2
06:19 25.7 °F 23.2 °F 29.78 in ESE 8.0 mph 12.0 mph 90% 0.00 in 0.00 W/m2
06:24 25.8 °F 23.3 °F 29.77 in ESE 10.0 mph 13.0 mph 90% 0.00 in 0.00 W/m2
06:29 25.9 °F 23.4 °F 29.77 in SE 8.0 mph 13.0 mph 90% 0.00 in 0.00 W/m2
06:34 26.0 °F 23.2 °F 29.77 in East 10.0 mph 14.0 mph 89% 0.00 in 0.00 W/m2
06:39 26.1 °F 23.3 °F 29.77 in ESE 12.0 mph 14.0 mph 89% 0.00 in 0.00 W/m2
06:44 26.3 °F 23.5 °F 29.77 in ESE 13.0 mph 15.0 mph 89% 0.00 in 0.00 W/m2
06:49 26.4 °F 23.6 °F 29.77 in ESE 12.0 mph 16.0 mph 89% 0.00 in 5.00 W/m2
06:54 26.5 °F 23.7 °F 29.77 in ESE 10.0 mph 16.0 mph 89% 0.00 in 7.00 W/m2
06:59 26.5 °F 23.4 °F 29.77 in ESE 9.0 mph 14.0 mph 88% 0.00 in 11.00 W/m2
07:04 26.3 °F 23.2 °F 29.77 in ESE 5.0 mph 12.0 mph 88% 0.00 in 12.00 W/m2
07:09 26.3 °F 23.2 °F 29.77 in SE 8.0 mph 11.0 mph 88% 0.00 in 14.00 W/m2
07:14 26.4 °F 23.3 °F 29.77 in ESE 8.0 mph 13.0 mph 88% 0.00 in 16.00 W/m2
07:19 26.4 °F 23.3 °F 29.77 in SE 9.0 mph 13.0 mph 88% 0.00 in 18.00 W/m2
07:24 26.4 °F 23.1 °F 29.77 in SE 9.0 mph 13.0 mph 87% 0.00 in 21.00 W/m2
07:29 26.4 °F 23.1 °F 29.77 in ESE 11.0 mph 14.0 mph 87% 0.00 in 25.00 W/m2
07:34 26.6 °F 23.3 °F 29.77 in ESE 11.0 mph 14.0 mph 87% 0.00 in 28.00 W/m2
07:39 26.8 °F 23.4 °F 29.76 in East 7.0 mph 14.0 mph 87% 0.00 in 35.00 W/m2
07:44 27.0 °F 23.6 °F 29.76 in SE 11.0 mph 14.0 mph 87% 0.00 in 42.00 W/m2
07:49 27.3 °F 23.9 °F 29.76 in ESE 11.0 mph 14.0 mph 87% 0.00 in 47.00 W/m2
07:54 27.6 °F 24.0 °F 29.76 in ESE 10.0 mph 14.0 mph 86% 0.00 in 53.00 W/m2
07:59 28.0 °F 24.4 °F 29.76 in ESE 10.0 mph 16.0 mph 86% 0.00 in 54.00 W/m2
08:04 28.3 °F 24.6 °F 29.76 in East 11.0 mph 16.0 mph 86% 0.00 in 67.00 W/m2
08:09 28.7 °F 25.0 °F 29.76 in ESE 13.0 mph 14.0 mph 86% 0.00 in 79.00 W/m2
08:14 29.4 °F 25.4 °F 29.76 in ESE 11.0 mph 16.0 mph 85% 0.00 in 137.00 W/m2
08:19 30.1 °F 25.8 °F 29.75 in ESE 13.0 mph 17.0 mph 84% 0.00 in 206.00 W/m2
08:24 30.7 °F 26.1 °F 29.75 in SE 13.0 mph 18.0 mph 83% 0.00 in 209.00 W/m2
08:29 30.9 °F 26.1 °F 29.75 in SE 9.0 mph 21.0 mph 82% 0.00 in 176.00 W/m2
08:34 31.1 °F 26.0 °F 29.75 in SE 19.0 mph 21.0 mph 81% 0.00 in 229.00 W/m2
08:39 31.6 °F 26.7 °F 29.75 in SE 7.0 mph 21.0 mph 82% 0.00 in 225.00 W/m2
08:44 32.1 °F 26.9 °F 29.75 in SE 13.0 mph 21.0 mph 81% 0.00 in 195.00 W/m2
08:49 32.4 °F 26.6 °F 29.74 in SE 14.0 mph 23.0 mph 79% 0.00 in 178.00 W/m2
08:54 32.8 °F 26.7 °F 29.74 in ESE 19.0 mph 23.0 mph 78% 0.00 in 183.00 W/m2
08:59 33.1 °F 26.7 °F 29.74 in SE 16.0 mph 23.0 mph 77% 0.00 in 192.00 W/m2
09:04 33.6 °F 26.8 °F 29.74 in ESE 13.0 mph 25.0 mph 76% 0.00 in 216.00 W/m2
09:09 33.9 °F 26.8 °F 29.73 in SSE 15.0 mph 25.0 mph 75% 0.00 in 220.00 W/m2
09:14 34.4 °F 27.0 °F 29.74 in SSE 10.0 mph 25.0 mph 74% 0.00 in 216.00 W/m2
09:19 34.7 °F 26.9 °F 29.74 in SE 13.0 mph 25.0 mph 73% 0.00 in 211.00 W/m2
09:24 35.1 °F 26.6 °F 29.73 in SSE 13.0 mph 24.0 mph 71% 0.00 in 209.00 W/m2
09:29 35.2 °F 26.4 °F 29.73 in SE 14.0 mph 24.0 mph 70% 0.00 in 214.00 W/m2
09:34 35.3 °F 26.5 °F 29.73 in SE 17.0 mph 25.0 mph 70% 0.00 in 239.00 W/m2
09:39 35.8 °F 26.6 °F 29.73 in SSE 13.0 mph 25.0 mph 69% 0.00 in 279.00 W/m2
09:44 36.0 °F 26.5 °F 29.73 in SSE 14.0 mph 26.0 mph 68% 0.00 in 325.00 W/m2
09:49 36.5 °F 26.6 °F 29.73 in SE 15.0 mph 28.0 mph 67% 0.00 in 352.00 W/m2
09:54 37.1 °F 27.2 °F 29.72 in SE 21.0 mph 28.0 mph 67% 0.00 in 417.00 W/m2
09:59 37.3 °F 26.6 °F 29.72 in SE 17.0 mph 30.0 mph 65% 0.00 in 406.00 W/m2
10:04 37.7 °F 27.4 °F 29.72 in SE 15.0 mph 30.0 mph 66% 0.00 in 438.00 W/m2
10:09 38.2 °F 27.1 °F 29.72 in SSE 14.0 mph 25.0 mph 64% 0.00 in 397.00 W/m2
10:14 38.3 °F 26.8 °F 29.71 in SSE 20.0 mph 27.0 mph 63% 0.00 in 485.00 W/m2
10:19 38.7 °F 27.2 °F 29.71 in SE 20.0 mph 28.0 mph 63% 0.00 in 492.00 W/m2
10:24 38.8 °F 26.9 °F 29.71 in SE 26.0 mph 33.0 mph 62% 0.00 in 410.00 W/m2
10:29 38.9 °F 27.0 °F 29.71 in SSE 13.0 mph 33.0 mph 62% 0.00 in 315.00 W/m2
10:34 38.5 °F 26.2 °F 29.71 in SSE 30.0 mph 32.0 mph 61% 0.00 in 353.00 W/m2
10:39 38.3 °F 26.0 °F 29.71 in SE 27.0 mph 32.0 mph 61% 0.00 in 383.00 W/m2
10:44 38.4 °F 26.5 °F 29.71 in SSE 15.0 mph 31.0 mph 62% 0.00 in 387.00 W/m2
10:49 38.6 °F 26.3 °F 29.71 in SE 20.0 mph 34.0 mph 61% 0.00 in 383.00 W/m2
10:54 38.8 °F 26.5 °F 29.70 in SSE 24.0 mph 34.0 mph 61% 0.00 in 362.00 W/m2
10:59 39.1 °F 27.2 °F 29.70 in SE 25.0 mph 32.0 mph 62% 0.00 in 381.00 W/m2
11:04 39.4 °F 27.1 °F 29.70 in SE 22.0 mph 27.0 mph 61% 0.00 in 397.00 W/m2
11:09 39.7 °F 26.9 °F 29.70 in SSE 19.0 mph 28.0 mph 60% 0.00 in 383.00 W/m2
11:14 40.2 °F 27.0 °F 29.70 in SE 27.0 mph 28.0 mph 59% 0.00 in 390.00 W/m2
11:19 40.1 °F 26.9 °F 29.70 in SE 24.0 mph 30.0 mph 59% 0.00 in 469.00 W/m2
11:24 40.6 °F 27.0 °F 29.69 in SE 18.0 mph 31.0 mph 58% 0.00 in 534.00 W/m2
11:29 41.4 °F 27.3 °F 29.69 in SSE 21.0 mph 31.0 mph 57% 0.00 in 729.00 W/m2
11:34 42.4 °F 28.2 °F 29.69 in ESE 21.0 mph 29.0 mph 57% 0.00 in 772.00 W/m2
11:39 42.9 °F 26.9 °F 29.69 in SSE 22.0 mph 31.0 mph 53% 0.00 in 867.00 W/m2
11:44 42.8 °F 26.4 °F 29.68 in SSE 23.0 mph 34.0 mph 52% 0.00 in 786.00 W/m2
11:49 42.9 °F 26.9 °F 29.68 in SSE 26.0 mph 37.0 mph 53% 0.00 in 636.00 W/m2
11:54 42.4 °F 26.5 °F 29.68 in SSE 24.0 mph 37.0 mph 53% 0.00 in 613.00 W/m2
11:59 43.0 °F 27.0 °F 29.68 in SE 17.0 mph 35.0 mph 53% 0.00 in 717.00 W/m2
12:04 43.1 °F 26.2 °F 29.68 in SSE 25.0 mph 35.0 mph 51% 0.00 in 570.00 W/m2
12:09 42.9 °F 26.5 °F 29.68 in SE 24.0 mph 31.0 mph 52% 0.00 in 490.00 W/m2
12:14 43.4 °F 26.9 °F 29.67 in SE 15.0 mph 30.0 mph 52% 0.00 in 601.00 W/m2
12:19 43.9 °F 27.4 °F 29.67 in SSE 15.0 mph 29.0 mph 52% 0.00 in 687.00 W/m2
12:24 45.1 °F 28.0 °F 29.67 in SSE 18.0 mph 29.0 mph 51% 0.00 in 758.00 W/m2
12:29 46.0 °F 27.4 °F 29.67 in South 22.0 mph 30.0 mph 48% 0.00 in 954.00 W/m2
12:34 46.1 °F 26.4 °F 29.67 in South 16.0 mph 33.0 mph 46% 0.00 in 933.00 W/m2
12:39 46.1 °F 26.4 °F 29.66 in SSE 28.0 mph 34.0 mph 46% 0.00 in 819.00 W/m2
12:44 46.3 °F 27.2 °F 29.66 in SSE 29.0 mph 34.0 mph 47% 0.00 in 976.00 W/m2
12:49 46.3 °F 26.6 °F 29.66 in South 18.0 mph 34.0 mph 46% 0.00 in 810.00 W/m2
12:54 46.4 °F 27.2 °F 29.66 in SSE 26.0 mph 33.0 mph 47% 0.00 in 926.00 W/m2
12:59 46.5 °F 27.3 °F 29.65 in SSE 25.0 mph 35.0 mph 47% 0.00 in 635.00 W/m2
13:04 46.1 °F 27.0 °F 29.65 in SSE 22.0 mph 35.0 mph 47% 0.00 in 585.00 W/m2
13:09 46.0 °F 27.4 °F 29.66 in SE 12.0 mph 32.0 mph 48% 0.00 in 599.00 W/m2
13:14 46.0 °F 26.9 °F 29.65 in SSE 28.0 mph 32.0 mph 47% 0.00 in 559.00 W/m2
13:19 45.6 °F 27.0 °F 29.65 in South 21.0 mph 36.0 mph 48% 0.00 in 506.00 W/m2
13:24 45.5 °F 26.9 °F 29.65 in SSE 19.0 mph 36.0 mph 48% 0.00 in 578.00 W/m2
13:29 46.0 °F 26.9 °F 29.66 in SE 18.0 mph 33.0 mph 47% 0.00 in 675.00 W/m2
13:34 46.7 °F 27.5 °F 29.65 in SSE 24.0 mph 29.0 mph 47% 0.00 in 673.00 W/m2
13:39 47.0 °F 27.8 °F 29.65 in SSE 24.0 mph 27.0 mph 47% 0.00 in 587.00 W/m2
13:44 47.3 °F 28.6 °F 29.65 in SSE 24.0 mph 27.0 mph 48% 0.00 in 708.00 W/m2
13:49 46.9 °F 27.2 °F 29.65 in SE 17.0 mph 31.0 mph 46% 0.00 in 696.00 W/m2
13:54 46.9 °F 27.7 °F 29.64 in SE 28.0 mph 31.0 mph 47% 0.00 in 589.00 W/m2
13:59 46.4 °F 26.7 °F 29.64 in SE 22.0 mph 34.0 mph 46% 0.00 in 482.00 W/m2
14:04 46.7 °F 28.0 °F 29.64 in SSE 21.0 mph 34.0 mph 48% 0.00 in 459.00 W/m2
14:09 46.9 °F 27.7 °F 29.64 in SSE 22.0 mph 30.0 mph 47% 0.00 in 585.00 W/m2
14:14 47.2 °F 28.5 °F 29.64 in SSE 15.0 mph 30.0 mph 48% 0.00 in 494.00 W/m2
14:19 47.2 °F 27.5 °F 29.64 in SSE 16.0 mph 30.0 mph 46% 0.00 in 519.00 W/m2
14:24 47.3 °F 28.1 °F 29.64 in SSE 24.0 mph 30.0 mph 47% 0.00 in 519.00 W/m2
14:29 47.7 °F 27.9 °F 29.63 in SE 14.0 mph 30.0 mph 46% 0.00 in 541.00 W/m2
14:34 47.8 °F 28.0 °F 29.64 in SSE 15.0 mph 34.0 mph 46% 0.00 in 561.00 W/m2
14:39 47.7 °F 27.9 °F 29.63 in SE 18.0 mph 34.0 mph 46% 0.00 in 585.00 W/m2
14:44 47.6 °F 27.8 °F 29.63 in SE 15.0 mph 31.0 mph 46% 0.00 in 475.00 W/m2
14:49 47.4 °F 27.1 °F 29.63 in SE 21.0 mph 31.0 mph 45% 0.00 in 434.00 W/m2
14:54 47.4 °F 27.6 °F 29.62 in SE 21.0 mph 31.0 mph 46% 0.00 in 452.00 W/m2
14:59 47.5 °F 27.7 °F 29.62 in South 14.0 mph 30.0 mph 46% 0.00 in 450.00 W/m2
15:04 48.2 °F 28.4 °F 29.62 in SSE 14.0 mph 28.0 mph 46% 0.00 in 401.00 W/m2
15:09 47.9 °F 27.6 °F 29.62 in South 22.0 mph 26.0 mph 45% 0.00 in 369.00 W/m2
15:14 47.7 °F 27.4 °F 29.61 in SSE 22.0 mph 26.0 mph 45% 0.00 in 378.00 W/m2
15:19 47.6 °F 27.3 °F 29.62 in South 21.0 mph 28.0 mph 45% 0.00 in 383.00 W/m2
15:24 47.2 °F 26.9 °F 29.61 in South 17.0 mph 29.0 mph 45% 0.00 in 320.00 W/m2
15:29 46.9 °F 27.2 °F 29.61 in SSE 28.0 mph 29.0 mph 46% 0.00 in 302.00 W/m2
15:34 46.7 °F 28.0 °F 29.61 in South 20.0 mph 28.0 mph 48% 0.00 in 297.00 W/m2
15:39 46.8 °F 27.6 °F 29.61 in SSE 14.0 mph 29.0 mph 47% 0.00 in 251.00 W/m2
15:44 46.4 °F 27.8 °F 29.61 in SSE 17.0 mph 31.0 mph 48% 0.00 in 218.00 W/m2
15:49 46.3 °F 27.7 °F 29.61 in SSE 22.0 mph 31.0 mph 48% 0.00 in 188.00 W/m2
15:54 46.3 °F 28.2 °F 29.61 in SSE 28.0 mph 31.0 mph 49% 0.00 in 251.00 W/m2
15:59 46.7 °F 28.5 °F 29.61 in SE 18.0 mph 29.0 mph 49% 0.00 in 371.00 W/m2
16:04 47.2 °F 28.5 °F 29.61 in SSE 16.0 mph 28.0 mph 48% 0.00 in 357.00 W/m2
16:09 47.5 °F 28.8 °F 29.61 in SE 15.0 mph 28.0 mph 48% 0.00 in 318.00 W/m2
16:14 47.5 °F 28.3 °F 29.61 in SSE 17.0 mph 28.0 mph 47% 0.00 in 348.00 W/m2
16:19 47.9 °F 28.6 °F 29.60 in SSE 17.0 mph 25.0 mph 47% 0.00 in 459.00 W/m2
16:24 48.3 °F 29.0 °F 29.60 in SSE 19.0 mph 29.0 mph 47% 0.00 in 717.00 W/m2
16:29 49.2 °F 29.3 °F 29.60 in South 20.0 mph 29.0 mph 46% 0.00 in 919.00 W/m2
16:34 49.4 °F 28.9 °F 29.60 in SSE 19.0 mph 28.0 mph 45% 0.00 in 318.00 W/m2
16:39 48.4 °F 28.0 °F 29.60 in SSE 15.0 mph 27.0 mph 45% 0.00 in 512.00 W/m2
16:44 48.0 °F 28.2 °F 29.61 in SE 22.0 mph 27.0 mph 46% 0.00 in 318.00 W/m2
16:49 48.0 °F 28.7 °F 29.60 in SE 13.0 mph 26.0 mph 47% 0.00 in 434.00 W/m2
16:54 48.5 °F 28.6 °F 29.60 in SSE 20.0 mph 25.0 mph 46% 0.00 in 283.00 W/m2
16:59 48.1 °F 28.8 °F 29.60 in South 19.0 mph 26.0 mph 47% 0.00 in 279.00 W/m2
17:04 47.7 °F 28.9 °F 29.60 in SE 18.0 mph 26.0 mph 48% 0.00 in 262.00 W/m2
17:09 47.9 °F 29.1 °F 29.60 in SE 17.0 mph 26.0 mph 48% 0.00 in 288.00 W/m2
17:14 48.1 °F 29.3 °F 29.60 in SSE 23.0 mph 26.0 mph 48% 0.00 in 350.00 W/m2
17:19 48.3 °F 29.0 °F 29.60 in SSW 17.0 mph 25.0 mph 47% 0.00 in 279.00 W/m2
17:24 48.1 °F 29.3 °F 29.60 in SE 20.0 mph 25.0 mph 48% 0.00 in 329.00 W/m2
17:29 47.8 °F 28.5 °F 29.60 in SE 15.0 mph 27.0 mph 47% 0.00 in 244.00 W/m2
17:34 47.3 °F 28.6 °F 29.60 in SE 18.0 mph 27.0 mph 48% 0.00 in 202.00 W/m2
17:39 47.5 °F 29.3 °F 29.60 in SSE 19.0 mph 27.0 mph 49% 0.00 in 374.00 W/m2
17:44 47.8 °F 29.5 °F 29.60 in SSE 19.0 mph 27.0 mph 49% 0.00 in 550.00 W/m2
17:49 47.4 °F 28.7 °F 29.59 in SSE 18.0 mph 27.0 mph 48% 0.00 in 279.00 W/m2
17:54 47.1 °F 28.9 °F 29.59 in South 17.0 mph 27.0 mph 49% 0.00 in 209.00 W/m2
17:59 46.9 °F 29.2 °F 29.59 in SSE 25.0 mph 26.0 mph 50% 0.00 in 188.00 W/m2
18:04 46.5 °F 28.8 °F 29.59 in SSE 21.0 mph 30.0 mph 50% 0.00 in 172.00 W/m2
18:09 46.5 °F 28.8 °F 29.59 in SE 21.0 mph 30.0 mph 50% 0.00 in 227.00 W/m2
18:14 46.3 °F 29.1 °F 29.59 in SSE 14.0 mph 31.0 mph 51% 0.00 in 188.00 W/m2
18:19 46.1 °F 29.0 °F 29.59 in SSE 20.0 mph 31.0 mph 51% 0.00 in 204.00 W/m2
18:24 46.2 °F 29.5 °F 29.59 in SSE 14.0 mph 25.0 mph 52% 0.00 in 199.00 W/m2
18:29 46.1 °F 29.0 °F 29.59 in SSE 21.0 mph 25.0 mph 51% 0.00 in 171.00 W/m2
18:34 45.8 °F 29.2 °F 29.59 in South 18.0 mph 24.0 mph 52% 0.00 in 153.00 W/m2
18:39 45.8 °F 29.2 °F 29.59 in SE 18.0 mph 26.0 mph 52% 0.00 in 139.00 W/m2
18:44 45.6 °F 29.4 °F 29.59 in SE 20.0 mph 26.0 mph 53% 0.00 in 123.00 W/m2
18:49 45.4 °F 29.3 °F 29.59 in SE 15.0 mph 25.0 mph 53% 0.00 in 113.00 W/m2
18:54 45.3 °F 29.2 °F 29.59 in SSE 18.0 mph 26.0 mph 53% 0.00 in 100.00 W/m2
18:59 45.2 °F 29.1 °F 29.59 in SE 19.0 mph 26.0 mph 53% 0.00 in 105.00 W/m2
19:04 44.9 °F 29.2 °F 29.59 in SSE 20.0 mph 26.0 mph 54% 0.00 in 100.00 W/m2
19:09 44.7 °F 29.1 °F 29.59 in SE 17.0 mph 27.0 mph 54% 0.00 in 95.00 W/m2
19:14 44.5 °F 29.3 °F 29.59 in SSE 19.0 mph 27.0 mph 55% 0.00 in 86.00 W/m2
19:19 44.2 °F 29.0 °F 29.59 in SSE 14.0 mph 27.0 mph 55% 0.00 in 63.00 W/m2
19:24 43.9 °F 29.2 °F 29.59 in SSE 14.0 mph 27.0 mph 56% 0.00 in 62.00 W/m2
19:29 43.6 °F 28.9 °F 29.59 in SSE 17.0 mph 25.0 mph 56% 0.00 in 65.00 W/m2
19:34 43.5 °F 29.3 °F 29.58 in SSE 14.0 mph 29.0 mph 57% 0.00 in 58.00 W/m2
19:39 43.3 °F 29.1 °F 29.58 in SSE 25.0 mph 29.0 mph 57% 0.00 in 42.00 W/m2
19:44 43.0 °F 28.8 °F 29.58 in SSE 15.0 mph 29.0 mph 57% 0.00 in 44.00 W/m2
19:49 42.7 °F 28.9 °F 29.58 in SE 18.0 mph 29.0 mph 58% 0.00 in 56.00 W/m2
19:54 42.6 °F 28.8 °F 29.59 in SSE 17.0 mph 27.0 mph 58% 0.00 in 69.00 W/m2
19:59 42.5 °F 29.2 °F 29.59 in SSE 19.0 mph 27.0 mph 59% 0.00 in 54.00 W/m2
20:04 42.2 °F 28.9 °F 29.58 in SSE 13.0 mph 29.0 mph 59% 0.00 in 30.00 W/m2
20:09 42.0 °F 28.7 °F 29.58 in SE 14.0 mph 29.0 mph 59% 0.00 in 21.00 W/m2
20:14 41.6 °F 28.7 °F 29.59 in SE 15.0 mph 24.0 mph 60% 0.00 in 14.00 W/m2
20:19 41.2 °F 28.8 °F 29.59 in SE 16.0 mph 24.0 mph 61% 0.00 in 9.00 W/m2
20:24 41.0 °F 28.6 °F 29.60 in SSE 17.0 mph 22.0 mph 61% 0.00 in 5.00 W/m2
20:29 40.8 °F 28.8 °F 29.60 in SSE 15.0 mph 22.0 mph 62% 0.00 in 0.00 W/m2
20:34 40.6 °F 28.6 °F 29.60 in SSE 12.0 mph 21.0 mph 62% 0.00 in 0.00 W/m2
20:39 40.4 °F 28.4 °F 29.60 in SSE 13.0 mph 21.0 mph 62% 0.00 in 0.00 W/m2
20:44 40.3 °F 28.7 °F 29.61 in SSE 14.0 mph 19.0 mph 63% 0.00 in 0.00 W/m2
20:49 40.1 °F 28.5 °F 29.60 in ESE 11.0 mph 20.0 mph 63% 0.00 in 0.00 W/m2
20:54 39.9 °F 28.3 °F 29.59 in SSE 18.0 mph 22.0 mph 63% 0.00 in 0.00 W/m2
20:59 39.6 °F 28.0 °F 29.59 in SSE 20.0 mph 26.0 mph 63% 0.00 in 0.00 W/m2
21:04 39.4 °F 28.2 °F 29.59 in SSE 15.0 mph 26.0 mph 64% 0.00 in 0.00 W/m2
21:09 39.1 °F 28.3 °F 29.60 in SSE 18.0 mph 23.0 mph 65% 0.00 in 0.00 W/m2
21:14 38.6 °F 28.2 °F 29.60 in SSE 15.0 mph 23.0 mph 66% 0.00 in 0.00 W/m2
21:19 38.2 °F 28.2 °F 29.60 in SSE 11.0 mph 24.0 mph 67% 0.00 in 0.00 W/m2
21:24 37.9 °F 27.9 °F 29.61 in SSE 18.0 mph 24.0 mph 67% 0.00 in 0.00 W/m2
21:29 37.5 °F 27.9 °F 29.61 in SSE 11.0 mph 22.0 mph 68% 0.00 in 0.00 W/m2
21:34 37.2 °F 28.0 °F 29.61 in South 18.0 mph 22.0 mph 69% 0.00 in 0.00 W/m2
21:39 36.9 °F 27.7 °F 29.60 in SE 17.0 mph 24.0 mph 69% 0.00 in 0.00 W/m2
21:44 36.6 °F 27.7 °F 29.61 in SSE 12.0 mph 24.0 mph 70% 0.00 in 0.00 W/m2
21:49 36.4 °F 27.5 °F 29.61 in SE 9.0 mph 23.0 mph 70% 0.00 in 0.00 W/m2
21:54 36.1 °F 27.6 °F 29.61 in SE 16.0 mph 22.0 mph 71% 0.00 in 0.00 W/m2
21:59 35.9 °F 27.4 °F 29.61 in SSE 15.0 mph 22.0 mph 71% 0.00 in 0.00 W/m2
22:04 35.7 °F 27.6 °F 29.61 in SSE 14.0 mph 22.0 mph 72% 0.00 in 0.00 W/m2
22:09 35.6 °F 27.5 °F 29.61 in SE 16.0 mph 19.0 mph 72% 0.00 in 0.00 W/m2
22:14 35.4 °F 27.6 °F 29.61 in SE 14.0 mph 23.0 mph 73% 0.00 in 0.00 W/m2
22:19 35.3 °F 27.5 °F 29.62 in SSE 12.0 mph 23.0 mph 73% 0.00 in 0.00 W/m2
22:24 35.2 °F 27.4 °F 29.61 in SE 14.0 mph 23.0 mph 73% 0.00 in 0.00 W/m2
22:29 35.1 °F 27.3 °F 29.61 in SE 13.0 mph 23.0 mph 73% 0.00 in 0.00 W/m2
22:34 34.9 °F 27.5 °F 29.61 in SE 6.0 mph 20.0 mph 74% 0.00 in 0.00 W/m2
22:39 34.7 °F 27.3 °F 29.61 in SSE 19.0 mph 20.0 mph 74% 0.00 in 0.00 W/m2
22:44 34.5 °F 27.4 °F 29.61 in SE 15.0 mph 22.0 mph 75% 0.00 in 0.00 W/m2
22:49 34.1 °F 27.3 °F 29.60 in SE 15.0 mph 22.0 mph 76% 0.00 in 0.00 W/m2
22:54 33.8 °F 27.7 °F 29.61 in SE 18.0 mph 22.0 mph 78% 0.00 in 0.00 W/m2
22:59 33.4 °F 27.6 °F 29.61 in SSE 14.0 mph 23.0 mph 79% 0.00 in 0.00 W/m2
23:04 33.3 °F 27.5 °F 29.61 in SSE 16.0 mph 23.0 mph 79% 0.00 in 0.00 W/m2
23:09 33.2 °F 27.4 °F 29.61 in SSE 17.0 mph 20.0 mph 79% 0.00 in 0.00 W/m2
23:14 33.2 °F 27.4 °F 29.62 in SE 12.0 mph 20.0 mph 79% 0.00 in 0.00 W/m2
23:19 33.2 °F 27.4 °F 29.61 in SE 13.0 mph 20.0 mph 79% 0.00 in 0.00 W/m2
23:24 33.2 °F 27.4 °F 29.61 in SE 13.0 mph 20.0 mph 79% 0.00 in 0.00 W/m2
23:29 33.2 °F 27.7 °F 29.62 in SE 13.0 mph 17.0 mph 80% 0.00 in 0.00 W/m2
23:34 33.1 °F 27.6 °F 29.62 in SE 11.0 mph 18.0 mph 80% 0.00 in 0.00 W/m2
23:39 33.0 °F 27.5 °F 29.62 in SE 11.0 mph 18.0 mph 80% 0.00 in 0.00 W/m2
23:44 32.9 °F 27.4 °F 29.62 in SSE 13.0 mph 17.0 mph 80% 0.00 in 0.00 W/m2
23:49 32.8 °F 27.6 °F 29.62 in SSE 10.0 mph 18.0 mph 81% 0.00 in 0.00 W/m2
23:54 32.7 °F 27.8 °F 29.62 in SE 13.0 mph 18.0 mph 82% 0.00 in 0.00 W/m2
23:59 32.7 °F 27.8 °F 29.62 in SE 11.0 mph 18.0 mph 82% 0.00 in 0.00 W/m2
Bismarck, North Dakota, USA
Compliments of Weather Underground - 4 mb